Change the Weather History Date:

Friday, November 15, 2013

  Actual Average Record
Temperature  
Mean Temperature 73 °F 64 °F  
Max Temperature 84 °F 76 °F 90 °F (1999)
Min Temperature 62 °F 53 °F 33 °F (1925)
Degree Days  
Heating Degree Days 0 3  
Month to date heating degree days 0 24  
Since 1 July heating degree days 1 30  
Cooling Degree Days 8 2  
Month to date cooling degree days 96 57  
Year to date cooling degree days 5008 4593  
Growing Degree Days 23 (Base 50)    
Moisture  
Dew Point 44 °F    
Average Humidity 36    
Maximum Humidity 51    
Minimum Humidity 20    
Precipitation  
Precipitation 0.00 in 0.02 in 0.58 in (1993)
Month to date precipitation T 0.29  
Year to date precipitation 5.60 6.79  
Snow  
Snow 0.00 in - - ()
Month to date snowfall 0.0  
Year to date snowfall 0.0  
Since 1 July snowfall 0.0  
Snow Depth 0.00 in    
Sea Level Pressure  
Sea Level Pressure 29.63 in    
Wind  
Wind Speed 9 mph (South)    
Max Wind Speed 20 mph    
Max Gust Speed 24 mph    
Visibility 10 miles    
Events      
T = Trace of Precipitation, MM = Missing Value Source: NWS Daily Summary

Daily Weather History Graph

Daily Weather History Graph

Search for Another Location

Airport or City:

Trip Planner

Search our weather history database for the weather conditions in past years. The results will help you decide how hot, cold, wet, or windy it might be!

Date:

Astronomy

Nov. 15, 2013 Rise Set
Actual Time 6:59 AM MST 5:25 PM MST
Civil Twilight 6:33 AM MST 5:51 PM MST
Nautical Twilight 6:03 AM MST 6:21 PM MST
Astronomical Twilight 5:33 AM MST 6:51 PM MST
Moon 4:20 PM MST (11/15) 5:04 AM MST (11/15)
Length of Visible Light 11h 18m
Length of Day
10h 25m
Waxing Gibbous, 97% of the Moon is Illuminated
Nov 15
Waxing Gibbous
Nov 17
Full
Nov 25
Last Quarter
Dec 2
New
Dec 9
First Quarter

Hourly Weather History & Observations

Time (MST) Temp. Dew Point Humidity Pressure Visibility Wind Dir Wind Speed Gust Speed Precip Events Conditions
12:51 AM 64.9 °F 44.1 °F 47% 29.74 in 10.0 mi East 10.4 mph - N/A   Partly Cloudy
1:51 AM 64.0 °F 45.0 °F 50% 29.73 in 10.0 mi East 8.1 mph - N/A   Partly Cloudy
2:51 AM 63.0 °F 43.0 °F 48% 29.71 in 10.0 mi East 10.4 mph - N/A   Partly Cloudy
3:51 AM 63.0 °F 42.1 °F 46% 29.71 in 10.0 mi East 10.4 mph - N/A   Mostly Cloudy
4:51 AM 63.0 °F 42.1 °F 46% 29.69 in 10.0 mi East 8.1 mph - N/A   Mostly Cloudy
5:51 AM 63.0 °F 42.1 °F 46% 29.69 in 10.0 mi East 8.1 mph - N/A   Mostly Cloudy
6:51 AM 64.0 °F 41.0 °F 43% 29.68 in 10.0 mi ESE 8.1 mph - N/A   Overcast
7:51 AM 64.0 °F 42.1 °F 45% 29.70 in 10.0 mi ESE 8.1 mph - N/A   Mostly Cloudy
8:51 AM 66.9 °F 41.0 °F 39% 29.70 in 10.0 mi East 8.1 mph - N/A   Mostly Cloudy
9:51 AM 70.0 °F 43.0 °F 38% 29.69 in 10.0 mi East 10.4 mph - N/A   Mostly Cloudy
10:51 AM 73.9 °F 46.0 °F 37% 29.68 in 10.0 mi SSE 8.1 mph - N/A   Mostly Cloudy
11:51 AM 77.0 °F 46.0 °F 33% 29.65 in 10.0 mi South 11.5 mph - N/A   Mostly Cloudy
12:51 PM 79.0 °F 44.1 °F 29% 29.60 in 10.0 mi Variable 5.8 mph - N/A   Mostly Cloudy
1:51 PM 82.0 °F 43.0 °F 25% 29.57 in 10.0 mi SW 5.8 mph - N/A   Mostly Cloudy
2:51 PM 82.0 °F 39.0 °F 22% 29.54 in 10.0 mi West 10.4 mph - N/A   Mostly Cloudy
3:51 PM 82.0 °F 37.9 °F 21% 29.52 in 10.0 mi SW 12.7 mph - N/A   Mostly Cloudy
4:51 PM 81.0 °F 39.9 °F 23% 29.51 in 10.0 mi WSW 11.5 mph - N/A   Mostly Cloudy
5:51 PM 78.1 °F 42.1 °F 28% 29.52 in 10.0 mi WSW 11.5 mph - N/A   Mostly Cloudy
6:51 PM 75.9 °F 43.0 °F 31% 29.54 in 10.0 mi WSW 9.2 mph 18.4 mph N/A   Scattered Clouds
7:51 PM 73.9 °F 42.1 °F 32% 29.56 in 10.0 mi SSW 10.4 mph - N/A   Partly Cloudy
8:51 PM 72.0 °F 46.9 °F 41% 29.59 in 10.0 mi SW 10.4 mph - N/A   Partly Cloudy
9:51 PM 71.1 °F 48.9 °F 45% 29.62 in 10.0 mi West 6.9 mph - N/A   Partly Cloudy
10:51 PM 70.0 °F 50.0 °F 49% 29.63 in 10.0 mi West 9.2 mph - N/A   Scattered Clouds
11:51 PM 69.1 °F 51.1 °F 53% 29.65 in 10.0 mi WNW 3.5 mph - N/A   Partly Cloudy